Torna al catalogo

CZ-6A R/B

AttivoPO
NORAD 69400·ROCKET BODY·🇨🇳 China

Lanciato Jun 4, 2026 da Taiyuan Satellite Launch Center

Loading…

Prossimi Passaggi (prossime 24 ore)

TLE

AggiornatoSource: Space-Track

Epoca: Sep 14, 2026, 13:37 UTC

1 69400U 26124U   26257.56765287  .00000272  00000-0  52034-4 0  9991
2 69400  89.0335 351.4974 0100043 112.4318 248.7527 14.57341473 14874

Traccia CZ-6A R/B in tempo reale con AllMySat

Download on the App Store